TITAN 3C TRANSTAGE DEB, 1835

Orbit data source: Space-Track

TITAN 3C TRANSTAGE DEB, 1835 is space debris in LEO originally from a launch on Fri, 15 Oct 1965 UTC launched from the Air Force Eastern Test Range (AFETR). Debris objects in space refer to the collection of defunct objects orbiting the Earth. Examples of debris include non-operational satellites, rocket bodies, and fragments generated from explosions, collisions, or faulty payload assembly.

Loading next visibility...
Identifier
1835, 1965-082EA
Orbit
LEO
Country
Flag of USUS
Related business
Manufacturer
Unknown
Mission
Spacecraft
Bus & Motor
Unknown
Mass
Unknown
Launch date (UTC)
1965-10-15 (60 years ago)
Launch vehicle
Unknown
Launch site
Air Force Eastern Test Range (AFETR)
Object type
Payload
Rocket body
Debris
Shape & HBR
Unknown
Radar Cross Section
Small (<0.1 m²)

Expand to show TLE details & history
Last TLE update: 22 hours ago

TLE from 22 hours ago
0 TITAN 3C TRANSTAGE DEB
1 01835U 65082EA  25261.18230886  .00003975  00000-0  26219-3 0  9997
2 01835  32.3948 304.8903 0012430 135.5711 224.5950 15.06111969206282
Epoch: 2025-09-18T04:22Z
TLE epoch observation values (Epoch: 2025-09-18T04:22:31.485Z)
Latitude
-0.00003°
Longitude
-118.08852°
Altitude
552.878 km
Speed
7.584 km/s
True Right ascension
20h 19m 33s
True Declination
0° 00' 00"
Sunlit
Object was in full shadow at epoch
Visualization orbit readout
Latitude
Unknown
Longitude
Unknown
Altitude
Unknown
Speed
Unknown
Apparent Right ascension
Unknown
Apparent Declination
Unknown
Sunlit
N/A
Visualization observer readout
Local Sidereal Time
18:48:21
Azimuth
Unknown
Elevation
Unknown
Doppler factor
Unknown
Orbital elements
Apogee altitude
560.335 km
Perigee altitude
543.107 km
Semi-major axis
6,929.858 km
Eccentricity
0.00124
Inclination
32.3948°
RAAN
304.8903°
Arg. of periapsis
135.5711°
True anomaly
224.49511°
Mean anomaly
224.595°
Eccentric anomaly
224.54504°
Mean motion
3.76233 °/min
Orbital period
95.69 mins
BSTAR
0.00026219
Loading maneuver chart data...
Computing Atmospheric mass density...

Documentation

Showing up to 5 results
|